Location: Proctor
(47.8934°N, 114.3048°W)
Time: 04:31:52
(UTC+00:00)

KKS-1 - Visible Passes

Search period start: 29 June 2022 00:00
Search period end: 09 July 2022 00:00
Orbit: 636 x 647 km, 98.2° (Epoch: 28 June)

Date Brightness Start Highest point End Pass type
(mag) Time Alt. Az. Time Alt. Az. Time Alt. Az.
29 Jun ? 04:42:40 10° NE 04:46:01 20° E 04:48:53 12° SE visible
29 Jun ? 06:18:28 10° N 06:22:48 48° WNW 06:26:30 13° SW visible
30 Jun ? 05:06:07 10° NNE 05:10:13 33° E 05:13:08 16° SSE visible
30 Jun ? 06:42:45 10° N 06:46:39 30° WNW 06:50:30 10° SW visible
01 Jul ? 05:29:52 10° NNE 05:34:17 57° E 05:37:23 19° S visible
01 Jul ? 07:07:16 10° NNW 07:10:24 19° WNW 07:13:32 10° WSW visible
02 Jul ? 04:19:34 10° ENE 04:21:11 12° E 04:22:47 10° ESE visible
02 Jul ? 05:53:48 10° NNE 05:58:19 84° WNW 06:01:37 18° SSW visible
02 Jul ? 07:32:20 10° NNW 07:34:05 12° NW 07:35:51 10° W visible
03 Jul ? 04:42:10 10° NE 04:45:27 20° E 04:48:15 12° SE visible
03 Jul ? 06:17:54 10° N 06:22:15 49° WNW 06:25:51 14° SW visible
04 Jul ? 05:05:35 10° NNE 05:09:38 33° E 05:12:29 17° SSE visible
04 Jul ? 06:42:11 10° N 06:46:06 30° WNW 06:49:59 10° SW visible
05 Jul ? 05:29:19 10° NNE 05:33:44 56° E 05:36:42 20° S visible
05 Jul ? 07:06:40 10° NNW 07:09:51 19° WNW 07:13:01 10° WSW visible
06 Jul ? 04:19:08 10° ENE 04:20:36 11° E 04:22:03 10° ESE visible
06 Jul ? 05:53:15 10° NNE 05:57:45 86° WNW 06:00:56 19° SSW visible
06 Jul ? 07:31:42 10° NNW 07:33:33 12° NW 07:35:23 10° W visible
07 Jul ? 04:41:38 10° NE 04:44:52 19° E 04:47:33 12° SE visible
07 Jul ? 06:17:20 10° N 06:21:41 51° WNW 06:25:10 15° SW visible
08 Jul ? 05:05:01 10° NNE 05:09:03 32° E 05:11:46 17° SSE visible
08 Jul ? 06:41:36 10° N 06:45:31 31° WNW 06:49:22 10° SW visible
